| time (UTC) | temp F | wind direction | speed knots | gust knots | rain 1hr in | rain 24hr in | rain mn in | humidity % | barometer mb |
| 20260507180512 | 63 | 301 | 5.2 | 14.8 | 0.00 | 0.00 | 0.00 | 35 | 1011.1 |
| 20260507180018 | 63 | 345 | 7.8 | 14.8 | 0.00 | 0.00 | 0.00 | 35 | 1011.2 |
| 20260507175512 | 62 | 317 | 7.0 | 16.5 | 0.00 | 0.00 | 0.00 | 35 | 1011.2 |
| 20260507175011 | 63 | 9 | 8.7 | 16.5 | 0.00 | 0.00 | 0.00 | 34 | 1011.2 |
| 20260507174513 | 63 | 292 | 4.3 | 13.0 | 0.00 | 0.00 | 0.00 | 36 | 1011.1 |
| 20260507174011 | 63 | 317 | 5.2 | 13.9 | 0.00 | 0.00 | 0.00 | 35 | 1011.2 |
| 20260507173517 | 63 | 322 | 7.8 | 12.2 | 0.00 | 0.00 | 0.00 | 35 | 1011.2 |
| 20260507173026 | 63 | 292 | 4.3 | 17.4 | 0.00 | 0.00 | 0.00 | 35 | 1011.3 |
| 20260507172510 | 63 | 336 | 8.7 | 17.4 | 0.00 | 0.00 | 0.00 | 34 | 1011.3 |
| 20260507172009 | 63 | 315 | 6.1 | 13.9 | 0.00 | 0.00 | 0.00 | 33 | 1011.2 |
| 20260507171508 | 63 | 17 | 9.6 | 13.9 | 0.00 | 0.00 | 0.00 | 34 | 1011.3 |
| 20260507171007 | 63 | 339 | 6.1 | 14.8 | 0.00 | 0.00 | 0.00 | 34 | 1011.3 |
| 20260507170507 | 63 | 360 | 6.1 | 13.0 | 0.00 | 0.00 | 0.00 | 35 | 1011.3 |
| 20260507170011 | 62 | 339 | 6.1 | 13.0 | 0.00 | 0.00 | 0.00 | 35 | 1011.4 |
| 20260507165505 | 61 | 327 | 7.0 | 13.0 | 0.00 | 0.00 | 0.00 | 33 | 1011.4 |
| 20260507165005 | 60 | 334 | 4.3 | 12.2 | 0.00 | 0.00 | 0.00 | 35 | 1011.4 |
| 20260507164512 | 60 | 312 | 6.1 | 12.2 | 0.00 | 0.00 | 0.00 | 35 | 1011.5 |
| 20260507164006 | 61 | 327 | 7.0 | 12.2 | 0.00 | 0.00 | 0.00 | 33 | 1011.5 |
| 20260507163505 | 62 | 340 | 4.3 | 11.3 | 0.00 | 0.00 | 0.00 | 33 | 1011.5 |
| 20260507163005 | 62 | 347 | 4.3 | 12.2 | 0.00 | 0.00 | 0.00 | 33 | 1011.5 |
| 20260507162504 | 62 | 348 | 3.5 | 14.8 | 0.00 | 0.00 | 0.00 | 35 | 1011.6 |
| 20260507162003 | 62 | 343 | 7.0 | 14.8 | 0.00 | 0.00 | 0.00 | 33 | 1011.5 |
| 20260507161503 | 61 | 344 | 6.1 | 14.8 | 0.00 | 0.00 | 0.00 | 34 | 1011.5 |
| 20260507161001 | 61 | 319 | 7.0 | 13.0 | 0.00 | 0.00 | 0.00 | 33 | 1011.5 |
| 20260507160500 | 61 | 320 | 7.0 | 13.0 | 0.00 | 0.00 | 0.00 | 35 | 1011.6 |
| 20260507160105 | 61 | 324 | 7.8 | 13.0 | 0.00 | 0.00 | 0.00 | 35 | 1011.6 |
| 20260507155558 | 60 | 13 | 7.8 | 13.0 | 0.00 | 0.00 | 0.00 | 35 | 1011.7 |
| 20260507155058 | 60 | 338 | 5.2 | 13.0 | 0.00 | 0.00 | 0.00 | 35 | 1011.7 |
| 20260507154600 | 60 | 329 | 5.2 | 15.6 | 0.00 | 0.00 | 0.00 | 36 | 1011.7 |
| 20260507154057 | 60 | 360 | 7.8 | 18.2 | 0.00 | 0.00 | 0.00 | 35 | 1011.7 |
| 20260507153557 | 59 | 312 | 7.8 | 18.2 | 0.00 | 0.00 | 0.00 | 35 | 1011.7 |
| 20260507153058 | 59 | 315 | 8.7 | 17.4 | 0.00 | 0.00 | 0.00 | 35 | 1011.7 |
| 20260507152557 | 59 | 311 | 8.7 | 17.4 | 0.00 | 0.00 | 0.00 | 34 | 1011.6 |
| 20260507152054 | 59 | 294 | 7.0 | 15.6 | 0.00 | 0.00 | 0.00 | 35 | 1011.5 |
| 20260507151554 | 59 | 294 | 8.7 | 13.9 | 0.00 | 0.00 | 0.00 | 35 | 1011.5 |
| 20260507151053 | 59 | 338 | 5.2 | 13.9 | 0.00 | 0.00 | 0.00 | 36 | 1011.5 |
| 20260507150553 | 59 | 329 | 6.1 | 14.8 | 0.00 | 0.00 | 0.00 | 35 | 1011.6 |
| 20260507150053 | 59 | 320 | 7.0 | 14.8 | 0.00 | 0.00 | 0.00 | 35 | 1011.6 |
| 20260507145552 | 58 | 323 | 8.7 | 15.6 | 0.00 | 0.00 | 0.00 | 33 | 1011.7 |
| 20260507145050 | 58 | 14 | 6.1 | 15.6 | 0.00 | 0.00 | 0.00 | 34 | 1011.7 |
| 20260507144549 | 58 | 315 | 7.0 | 14.8 | 0.00 | 0.00 | 0.00 | 34 | 1011.8 |
| 20260507144123 | 58 | 329 | 8.7 | 14.8 | 0.00 | 0.00 | 0.00 | 35 | 1011.7 |
| 20260507143648 | 57 | 328 | 7.0 | 13.9 | 0.00 | 0.00 | 0.00 | 36 | 1011.5 |
| 20260507143047 | 57 | 305 | 7.0 | 13.9 | 0.00 | 0.00 | 0.00 | 37 | 1011.4 |
| 20260507142545 | 57 | 325 | 7.0 | 17.4 | 0.00 | 0.00 | 0.00 | 38 | 1011.3 |
| 20260507142042 | 56 | 333 | 4.3 | 17.4 | 0.00 | 0.00 | 0.00 | 38 | 1011.4 |
| 20260507141543 | 56 | 342 | 8.7 | 16.5 | 0.00 | 0.00 | 0.00 | 38 | 1011.2 |
| 20260507141041 | 56 | 320 | 10.4 | 20.0 | 0.00 | 0.00 | 0.00 | 39 | 1011.2 |
| 20260507140540 | 55 | 307 | 11.3 | 20.0 | 0.00 | 0.00 | 0.00 | 40 | 1011.2 |
| 20260507140043 | 55 | 296 | 10.4 | 18.2 | 0.00 | 0.00 | 0.00 | 40 | 1011.2 |
| 20260507135537 | 54 | 336 | 8.7 | 17.4 | 0.00 | 0.00 | 0.00 | 42 | 1011.2 |
| 20260507135036 | 53 | 298 | 9.6 | 16.5 | 0.00 | 0.00 | 0.00 | 43 | 1011.1 |
| 20260507134536 | 53 | 306 | 7.0 | 16.5 | 0.00 | 0.00 | 0.00 | 43 | 1011.2 |
| 20260507134033 | 53 | 342 | 10.4 | 16.5 | 0.00 | 0.00 | 0.00 | 43 | 1011.1 |
| 20260507133533 | 52 | 284 | 7.0 | 18.2 | 0.00 | 0.00 | 0.00 | 44 | 1011.0 |
| 20260507133031 | 52 | 310 | 10.4 | 18.2 | 0.00 | 0.00 | 0.00 | 45 | 1011.0 |
| 20260507132533 | 51 | 284 | 12.2 | 19.1 | 0.00 | 0.00 | 0.00 | 46 | 1010.9 |
| 20260507132027 | 51 | 289 | 12.2 | 18.2 | 0.00 | 0.00 | 0.00 | 47 | 1010.9 |
| 20260507131526 | 50 | 292 | 10.4 | 18.2 | 0.00 | 0.00 | 0.00 | 49 | 1010.8 |
| 20260507131025 | 49 | 297 | 10.4 | 17.4 | 0.00 | 0.00 | 0.00 | 50 | 1010.7 |
| 20260507130524 | 48 | 293 | 11.3 | 17.4 | 0.00 | 0.00 | 0.00 | 52 | 1010.7 |
| 20260507130022 | 47 | 286 | 8.7 | 13.9 | 0.00 | 0.00 | 0.00 | 53 | 1010.7 |
| 20260507125523 | 46 | 306 | 8.7 | 13.0 | 0.00 | 0.00 | 0.00 | 53 | 1010.8 |
| 20260507125019 | 46 | 315 | 8.7 | 14.8 | 0.00 | 0.00 | 0.00 | 53 | 1010.7 |
| 20260507124521 | 45 | 292 | 10.4 | 14.8 | 0.00 | 0.00 | 0.00 | 54 | 1010.7 |
| 20260507124020 | 44 | 299 | 9.6 | 15.6 | 0.00 | 0.00 | 0.00 | 56 | 1010.6 |
| 20260507123514 | 43 | 299 | 9.6 | 15.6 | 0.00 | 0.00 | 0.00 | 58 | 1010.6 |
| 20260507123014 | 41 | 286 | 9.6 | 13.9 | 0.00 | 0.00 | 0.00 | 59 | 1010.5 |
| 20260507122511 | 40 | 296 | 8.7 | 13.9 | 0.00 | 0.00 | 0.00 | 60 | 1010.4 |
| 20260507122010 | 40 | 264 | 7.8 | 13.0 | 0.00 | 0.00 | 0.00 | 60 | 1010.4 |
| 20260507121513 | 40 | 288 | 7.8 | 12.2 | 0.00 | 0.00 | 0.00 | 59 | 1010.4 |
| 20260507121010 | 40 | 273 | 7.8 | 13.9 | 0.00 | 0.00 | 0.00 | 59 | 1010.3 |
| 20260507120511 | 39 | 286 | 7.8 | 13.9 | 0.00 | 0.00 | 0.00 | 59 | 1010.4 |
| 20260507120009 | 38 | 261 | 7.0 | 12.2 | 0.00 | 0.00 | 0.00 | 59 | 1010.4 |
| 20260507115509 | 39 | 283 | 5.2 | 12.2 | 0.00 | 0.00 | 0.00 | 59 | 1010.4 |
| 20260507115008 | 38 | 274 | 7.8 | 12.2 | 0.00 | 0.00 | 0.00 | 59 | 1010.4 |
| 20260507114509 | 38 | 288 | 7.8 | 11.3 | 0.00 | 0.00 | 0.00 | 59 | 1010.3 |
| 20260507114011 | 37 | 277 | 7.8 | 13.0 | 0.00 | 0.00 | 0.00 | 60 | 1010.4 |
| 20260507113508 | 36 | 288 | 7.8 | 13.0 | 0.00 | 0.00 | 0.00 | 58 | 1010.3 |
| 20260507113027 | 37 | 262 | 6.1 | 9.6 | 0.00 | 0.00 | 0.00 | 57 | 1010.2 |
| 20260507112507 | 37 | 267 | 6.1 | 9.6 | 0.00 | 0.00 | 0.00 | 56 | 1010.2 |
| 20260507112007 | 38 | 266 | 6.1 | 9.6 | 0.00 | 0.00 | 0.00 | 55 | 1010.1 |
| 20260507111506 | 38 | 285 | 6.1 | 13.0 | 0.00 | 0.00 | 0.00 | 54 | 1010.2 |
| 20260507111005 | 38 | 262 | 8.7 | 13.0 | 0.00 | 0.00 | 0.00 | 54 | 1010.1 |
| 20260507110505 | 38 | 275 | 7.8 | 13.9 | 0.00 | 0.00 | 0.00 | 54 | 1010.2 |
| 20260507110010 | 38 | 308 | 7.0 | 13.9 | 0.00 | 0.00 | 0.00 | 53 | 1010.2 |
| 20260507105505 | 37 | 256 | 8.7 | 13.0 | 0.00 | 0.00 | 0.00 | 54 | 1010.3 |
| 20260507105005 | 38 | 284 | 6.1 | 10.4 | 0.00 | 0.00 | 0.00 | 54 | 1010.3 |
| 20260507104505 | 38 | 265 | 6.1 | 13.9 | 0.00 | 0.00 | 0.00 | 54 | 1010.3 |
| 20260507104007 | 38 | 251 | 9.6 | 13.9 | 0.00 | 0.00 | 0.00 | 55 | 1010.3 |
| 20260507103506 | 38 | 290 | 5.2 | 7.8 | 0.00 | 0.00 | 0.00 | 55 | 1010.3 |
| 20260507103004 | 38 | 278 | 5.2 | 7.8 | 0.00 | 0.00 | 0.00 | 54 | 1010.4 |
| 20260507102504 | 38 | 277 | 4.3 | 8.7 | 0.00 | 0.00 | 0.00 | 54 | 1010.3 |
| 20260507102006 | 39 | 289 | 5.2 | 8.7 | 0.00 | 0.00 | 0.00 | 53 | 1010.3 |
| 20260507101512 | 39 | 300 | 2.6 | 11.3 | 0.00 | 0.00 | 0.00 | 51 | 1010.3 |
| 20260507101005 | 40 | 286 | 5.2 | 14.8 | 0.00 | 0.00 | 0.00 | 50 | 1010.2 |
| 20260507100502 | 40 | 259 | 9.6 | 14.8 | 0.00 | 0.00 | 0.00 | 50 | 1010.1 |
| 20260507100003 | 40 | 290 | 9.6 | 14.8 | 0.00 | 0.00 | 0.00 | 50 | 1010.2 |
| 20260507095601 | 39 | 269 | 7.8 | 13.0 | 0.00 | 0.00 | 0.00 | 49 | 1010.2 |
| 20260507095100 | 39 | 289 | 5.2 | 10.4 | 0.00 | 0.00 | 0.00 | 49 | 1010.2 |
| 20260507094607 | 38 | 280 | 7.0 | 12.2 | 0.00 | 0.00 | 0.00 | 50 | 1010.3 |
| 20260507094057 | 36 | 267 | 7.8 | 12.2 | 0.00 | 0.00 | 0.00 | 52 | 1010.3 |
| 20260507093659 | 35 | 255 | 6.1 | 10.4 | 0.00 | 0.00 | 0.00 | 52 | 1010.3 |
| 20260507093057 | 35 | 307 | 2.6 | 4.3 | 0.00 | 0.00 | 0.00 | 49 | 1010.5 |
| 20260507092557 | 35 | 306 | 1.7 | 7.8 | 0.00 | 0.00 | 0.00 | 48 | 1010.3 |
| 20260507092056 | 35 | 285 | 2.6 | 8.7 | 0.00 | 0.00 | 0.00 | 47 | 1010.4 |
| 20260507091625 | 35 | 315 | 5.2 | 9.6 | 0.00 | 0.00 | 0.00 | 47 | 1010.5 |
| 20260507091057 | 36 | 310 | 3.5 | 7.0 | 0.00 | 0.00 | 0.00 | 46 | 1010.5 |
| 20260507090555 | 37 | 298 | 1.7 | 9.6 | 0.00 | 0.00 | 0.00 | 45 | 1010.4 |
| 20260507090056 | 37 | 290 | 6.1 | 12.2 | 0.00 | 0.00 | 0.00 | 44 | 1010.4 |
| 20260507085554 | 37 | 275 | 8.7 | 13.0 | 0.00 | 0.00 | 0.00 | 43 | 1010.3 |
| 20260507085054 | 37 | 258 | 9.6 | 13.9 | 0.00 | 0.00 | 0.00 | 43 | 1010.2 |
| 20260507084604 | 37 | 270 | 9.6 | 13.9 | 0.00 | 0.00 | 0.00 | 43 | 1010.2 |
| 20260507084053 | 37 | 273 | 9.6 | 13.9 | 0.00 | 0.00 | 0.00 | 43 | 1010.1 |
| 20260507083555 | 37 | 258 | 10.4 | 14.8 | 0.00 | 0.00 | 0.00 | 43 | 1010.1 |
| 20260507083051 | 36 | 261 | 9.6 | 14.8 | 0.00 | 0.00 | 0.00 | 44 | 1010.1 |
| 20260507082548 | 36 | 255 | 9.6 | 13.0 | 0.00 | 0.00 | 0.00 | 44 | 1010.0 |
| 20260507082047 | 36 | 254 | 7.8 | 13.9 | 0.00 | 0.00 | 0.00 | 45 | 1010.1 |
| 20260507081556 | 36 | 243 | 8.7 | 13.9 | 0.00 | 0.00 | 0.00 | 45 | 1010.2 |
| 20260507081048 | 35 | 234 | 8.7 | 13.0 | 0.00 | 0.00 | 0.00 | 45 | 1010.3 |
| 20260507080546 | 35 | 262 | 8.7 | 13.0 | 0.00 | 0.00 | 0.00 | 46 | 1010.4 |
| 20260507080046 | 35 | 271 | 8.7 | 13.0 | 0.00 | 0.00 | 0.00 | 46 | 1010.4 |
| 20260507075545 | 35 | 237 | 7.8 | 13.0 | 0.00 | 0.00 | 0.00 | 45 | 1010.4 |
| 20260507075045 | 35 | 256 | 8.7 | 12.2 | 0.00 | 0.00 | 0.00 | 45 | 1010.5 |
| 20260507074645 | 35 | 255 | 7.8 | 12.2 | 0.00 | 0.00 | 0.00 | 45 | 1010.6 |
| 20260507074050 | 36 | 258 | 8.7 | 12.2 | 0.00 | 0.00 | 0.00 | 44 | 1010.6 |
| 20260507073543 | 35 | 263 | 7.8 | 12.2 | 0.00 | 0.00 | 0.00 | 45 | 1010.6 |
| 20260507073042 | 35 | 273 | 7.8 | 12.2 | 0.00 | 0.00 | 0.00 | 45 | 1010.7 |
| 20260507072540 | 35 | 267 | 7.0 | 13.0 | 0.00 | 0.00 | 0.00 | 46 | 1010.8 |
| 20260507072042 | 35 | 250 | 8.7 | 12.2 | 0.00 | 0.00 | 0.00 | 46 | 1010.7 |
| 20260507071539 | 35 | 257 | 8.7 | 13.9 | 0.00 | 0.00 | 0.00 | 46 | 1010.9 |
| 20260507071040 | 35 | 254 | 7.8 | 13.9 | 0.00 | 0.00 | 0.00 | 47 | 1010.8 |
| 20260507070539 | 35 | 284 | 7.8 | 13.0 | 0.00 | 0.00 | 0.00 | 47 | 1010.8 |
| 20260507070037 | 34 | 253 | 9.6 | 13.9 | 0.00 | 0.00 | 0.00 | 49 | 1010.8 |
| 20260507065537 | 33 | 263 | 7.8 | 13.9 | 0.00 | 0.00 | 0.00 | 51 | 1010.9 |
| 20260507065034 | 32 | 262 | 5.2 | 8.7 | 0.00 | 0.00 | 0.00 | 52 | 1010.6 |
| 20260507064536 | 31 | 250 | 4.3 | 6.1 | 0.00 | 0.00 | 0.00 | 55 | 1010.7 |
| 20260507064033 | 31 | 267 | 3.5 | 6.1 | 0.00 | 0.00 | 0.00 | 54 | 1010.8 |
| 20260507063531 | 31 | 280 | 1.7 | 3.5 | 0.00 | 0.00 | 0.00 | 53 | 1010.8 |
| 20260507063032 | 31 | 264 | 0.0 | 3.5 | 0.00 | 0.00 | 0.00 | 52 | 1011.0 |
| 20260507062530 | 31 | 279 | 1.7 | 3.5 | 0.00 | 0.00 | 0.00 | 53 | 1011.0 |
| 20260507062028 | 31 | 273 | 1.7 | 5.2 | 0.00 | 0.00 | 0.00 | 52 | 1011.0 |
| 20260507061528 | 32 | 285 | 2.6 | 7.0 | 0.00 | 0.00 | 0.00 | 52 | 1011.2 |
| 20260507061026 | 32 | 286 | 3.5 | 8.7 | 0.00 | 0.00 | 0.00 | 52 | 1011.3 |
| 20260507060525 | 32 | 268 | 3.5 | 8.7 | 0.00 | 0.00 | 0.00 | 52 | 1011.4 |
| 20260507060029 | 32 | 271 | 5.2 | 8.7 | 0.00 | 0.00 | 0.00 | 51 | 1011.4 |
| 20260507055524 | 33 | 281 | 3.5 | 7.8 | 0.00 | 0.00 | 0.00 | 50 | 1011.4 |
| 20260507055023 | 34 | 275 | 4.3 | 11.3 | 0.00 | 0.00 | 0.00 | 48 | 1011.5 |
| 20260507054523 | 34 | 244 | 7.8 | 13.0 | 0.00 | 0.00 | 0.00 | 48 | 1011.5 |
| 20260507054023 | 34 | 275 | 9.6 | 13.0 | 0.00 | 0.00 | 0.00 | 49 | 1011.5 |
| 20260507053523 | 34 | 238 | 7.8 | 12.2 | 0.00 | 0.00 | 0.00 | 50 | 1011.5 |
| 20260507053022 | 34 | 257 | 8.7 | 13.0 | 0.00 | 0.00 | 0.00 | 50 | 1011.5 |
| 20260507052521 | 34 | 261 | 8.7 | 13.0 | 0.00 | 0.00 | 0.00 | 49 | 1011.5 |
| 20260507052021 | 35 | 284 | 8.7 | 11.3 | 0.00 | 0.00 | 0.00 | 49 | 1011.6 |
| 20260507051520 | 35 | 261 | 8.7 | 11.3 | 0.00 | 0.00 | 0.00 | 49 | 1011.7 |
| 20260507051024 | 35 | 268 | 8.7 | 11.3 | 0.00 | 0.00 | 0.00 | 49 | 1011.7 |
| 20260507050521 | 35 | 256 | 7.8 | 11.3 | 0.00 | 0.00 | 0.00 | 49 | 1011.7 |
| 20260507050026 | 35 | 281 | 7.8 | 10.4 | 0.00 | 0.00 | 0.00 | 48 | 1011.8 |
| 20260507045522 | 36 | 251 | 7.8 | 9.6 | 0.00 | 0.00 | 0.00 | 48 | 1011.9 |
| 20260507045019 | 36 | 253 | 6.1 | 7.8 | 0.00 | 0.00 | 0.00 | 48 | 1011.9 |
| 20260507044519 | 36 | 265 | 5.2 | 7.8 | 0.00 | 0.00 | 0.00 | 47 | 1012.0 |
| 20260507044018 | 36 | 258 | 6.1 | 7.8 | 0.00 | 0.00 | 0.00 | 47 | 1012.0 |
| 20260507043519 | 37 | 270 | 4.3 | 8.7 | 0.00 | 0.00 | 0.00 | 46 | 1012.1 |
| 20260507043024 | 37 | 259 | 6.1 | 8.7 | 0.00 | 0.00 | 0.00 | 46 | 1012.1 |
| 20260507042521 | 37 | 232 | 5.2 | 8.7 | 0.00 | 0.00 | 0.00 | 45 | 1012.0 |
| 20260507042018 | 37 | 254 | 6.1 | 8.7 | 0.00 | 0.00 | 0.00 | 45 | 1012.1 |
| 20260507041518 | 37 | 262 | 5.2 | 8.7 | 0.00 | 0.00 | 0.00 | 45 | 1012.2 |
| 20260507041018 | 38 | 257 | 5.2 | 7.8 | 0.00 | 0.00 | 0.00 | 45 | 1012.1 |
| 20260507040518 | 37 | 265 | 5.2 | 7.8 | 0.00 | 0.00 | 0.00 | 46 | 1012.2 |
| 20260507040017 | 37 | 270 | 5.2 | 7.8 | 0.00 | 0.00 | 0.00 | 46 | 1012.2 |
| 20260507035517 | 37 | 272 | 5.2 | 7.8 | 0.00 | 0.00 | 0.00 | 45 | 1012.2 |
| 20260507035017 | 37 | 273 | 6.1 | 7.8 | 0.00 | 0.00 | 0.00 | 45 | 1012.2 |
| 20260507034522 | 38 | 261 | 5.2 | 7.8 | 0.00 | 0.00 | 0.00 | 43 | 1012.2 |
| 20260507034016 | 39 | 288 | 4.3 | 7.8 | 0.00 | 0.00 | 0.00 | 42 | 1012.2 |
| 20260507033516 | 39 | 256 | 5.2 | 7.8 | 0.00 | 0.00 | 0.00 | 42 | 1012.1 |
| 20260507033017 | 40 | 264 | 3.5 | 7.8 | 0.00 | 0.00 | 0.00 | 41 | 1012.2 |
| 20260507032520 | 41 | 286 | 5.2 | 8.7 | 0.00 | 0.00 | 0.00 | 41 | 1012.1 |
| 20260507032015 | 41 | 257 | 7.0 | 9.6 | 0.00 | 0.00 | 0.00 | 40 | 1012.1 |
| 20260507031518 | 41 | 273 | 6.1 | 9.6 | 0.00 | 0.00 | 0.00 | 39 | 1012.1 |
| 20260507031016 | 41 | 254 | 7.0 | 9.6 | 0.00 | 0.00 | 0.00 | 40 | 1012.1 |
| 20260507030519 | 41 | 250 | 4.3 | 7.8 | 0.00 | 0.00 | 0.00 | 39 | 1012.1 |
| 20260507030016 | 42 | 254 | 3.5 | 7.8 | 0.00 | 0.00 | 0.00 | 39 | 1012.1 |
| 20260507025514 | 42 | 260 | 4.3 | 7.8 | 0.00 | 0.00 | 0.00 | 38 | 1012.1 |
| 20260507025015 | 42 | 239 | 3.5 | 8.7 | 0.00 | 0.00 | 0.00 | 37 | 1012.0 |
| 20260507024519 | 43 | 260 | 5.2 | 8.7 | 0.00 | 0.00 | 0.00 | 37 | 1012.0 |
| 20260507024014 | 42 | 250 | 5.2 | 8.7 | 0.00 | 0.00 | 0.00 | 37 | 1012.0 |
| 20260507023514 | 43 | 252 | 4.3 | 8.7 | 0.00 | 0.00 | 0.00 | 37 | 1011.9 |
| 20260507023014 | 43 | 245 | 3.5 | 7.0 | 0.00 | 0.00 | 0.00 | 36 | 1012.0 |
| 20260507022516 | 44 | 250 | 3.5 | 7.0 | 0.00 | 0.00 | 0.00 | 36 | 1011.9 |
| 20260507022015 | 44 | 244 | 3.5 | 7.0 | 0.00 | 0.00 | 0.00 | 35 | 1011.9 |
| 20260507021513 | 45 | 259 | 3.5 | 7.0 | 0.00 | 0.00 | 0.00 | 34 | 1012.0 |
| 20260507021015 | 46 | 246 | 2.6 | 8.7 | 0.00 | 0.00 | 0.00 | 33 | 1012.1 |
| 20260507020513 | 46 | 266 | 5.2 | 8.7 | 0.00 | 0.00 | 0.00 | 32 | 1012.0 |
| 20260507020018 | 47 | 258 | 3.5 | 7.8 | 0.00 | 0.00 | 0.00 | 32 | 1012.1 |
| 20260507015512 | 47 | 242 | 4.3 | 8.7 | 0.00 | 0.00 | 0.00 | 32 | 1012.0 |
| 20260507015012 | 48 | 246 | 4.3 | 8.7 | 0.00 | 0.00 | 0.00 | 31 | 1012.0 |
| 20260507014512 | 48 | 254 | 5.2 | 11.3 | 0.00 | 0.00 | 0.00 | 31 | 1012.0 |
| 20260507014012 | 49 | 262 | 6.1 | 12.2 | 0.00 | 0.00 | 0.00 | 30 | 1012.1 |
| 20260507013510 | 49 | 287 | 8.7 | 13.0 | 0.00 | 0.00 | 0.00 | 30 | 1012.1 |
| 20260507013013 | 49 | 263 | 6.1 | 13.0 | 0.00 | 0.00 | 0.00 | 31 | 1012.2 |
| 20260507012510 | 49 | 266 | 7.8 | 13.9 | 0.00 | 0.00 | 0.00 | 30 | 1012.2 |
| 20260507012009 | 49 | 256 | 7.8 | 13.9 | 0.00 | 0.00 | 0.00 | 30 | 1012.2 |
| 20260507011512 | 49 | 294 | 7.0 | 13.9 | 0.00 | 0.00 | 0.00 | 29 | 1012.3 |
| 20260507011008 | 50 | 259 | 9.6 | 13.9 | 0.00 | 0.00 | 0.00 | 28 | 1012.3 |
| 20260507010508 | 50 | 252 | 7.8 | 15.6 | 0.00 | 0.00 | 0.00 | 28 | 1012.4 |
| 20260507010008 | 50 | 258 | 10.4 | 18.2 | 0.00 | 0.00 | 0.00 | 27 | 1012.3 |
| 20260507005507 | 51 | 272 | 12.2 | 18.2 | 0.00 | 0.00 | 0.00 | 27 | 1012.4 |
| 20260507005006 | 51 | 278 | 10.4 | 17.4 | 0.00 | 0.00 | 0.00 | 27 | 1012.5 |
| 20260507004509 | 51 | 267 | 9.6 | 17.4 | 0.00 | 0.00 | 0.00 | 27 | 1012.5 |
| 20260507004007 | 51 | 253 | 8.7 | 16.5 | 0.00 | 0.00 | 0.00 | 26 | 1012.5 |
| 20260507003508 | 51 | 269 | 9.6 | 16.5 | 0.00 | 0.00 | 0.00 | 26 | 1012.4 |
| 20260507003006 | 51 | 296 | 9.6 | 22.6 | 0.00 | 0.00 | 0.00 | 26 | 1012.6 |
| 20260507002505 | 51 | 258 | 13.0 | 22.6 | 0.00 | 0.00 | 0.00 | 27 | 1012.7 |
| 20260507002004 | 51 | 271 | 13.9 | 23.5 | 0.00 | 0.00 | 0.00 | 26 | 1012.7 |
| 20260507001512 | 51 | 277 | 15.6 | 23.5 | 0.00 | 0.00 | 0.00 | 26 | 1012.8 |
| 20260507001003 | 51 | 234 | 9.6 | 17.4 | 0.00 | 0.00 | 0.00 | 26 | 1012.8 |
| 20260507000505 | 51 | 302 | 8.7 | 19.1 | 0.00 | 0.00 | 0.00 | 27 | 1012.8 |
| 20260507000002 | 51 | 265 | 9.6 | 17.4 | 0.00 | 0.00 | 0.00 | 27 | 1012.9 |
| 20260506235503 | 51 | 276 | 11.3 | 24.3 | 0.00 | 0.00 | 0.00 | 27 | 1012.9 |
| 20260506235003 | 51 | 277 | 14.8 | 25.2 | 0.00 | 0.00 | 0.00 | 27 | 1012.9 |
| 20260506234502 | 51 | 264 | 13.9 | 21.7 | 0.00 | 0.00 | 0.00 | 27 | 1012.9 |
| 20260506234002 | 52 | 294 | 11.3 | 20.0 | 0.00 | 0.00 | 0.00 | 28 | 1012.9 |
| 20260506233604 | 52 | 304 | 13.0 | 20.0 | 0.00 | 0.00 | 0.00 | 27 | 1013.0 |
| 20260506233102 | 51 | 275 | 8.7 | 20.9 | 0.00 | 0.00 | 0.00 | 28 | 1013.0 |
| 20260506232601 | 51 | 269 | 12.2 | 20.9 | 0.00 | 0.00 | 0.00 | 27 | 1013.0 |
| 20260506232059 | 51 | 267 | 14.8 | 21.7 | 0.00 | 0.00 | 0.00 | 27 | 1012.9 |
| 20260506231607 | 51 | 299 | 7.8 | 20.9 | 0.00 | 0.00 | 0.00 | 27 | 1012.9 |
| 20260506231059 | 51 | 269 | 13.9 | 20.9 | 0.00 | 0.00 | 0.00 | 28 | 1013.0 |
| 20260506230557 | 51 | 284 | 11.3 | 20.0 | 0.00 | 0.00 | 0.00 | 29 | 1013.0 |
| 20260506230113 | 51 | 258 | 9.6 | 20.9 | 0.00 | 0.00 | 0.00 | 28 | 1013.1 |
| 20260506225558 | 51 | 299 | 13.0 | 20.9 | 0.00 | 0.00 | 0.00 | 29 | 1013.1 |
| 20260506225056 | 51 | 252 | 10.4 | 17.4 | 0.00 | 0.00 | 0.00 | 30 | 1013.1 |
| 20260506224555 | 50 | 249 | 9.6 | 20.9 | 0.00 | 0.00 | 0.00 | 30 | 1013.2 |
| 20260506224055 | 50 | 256 | 13.0 | 20.9 | 0.00 | 0.00 | 0.00 | 31 | 1013.4 |
| 20260506223558 | 50 | 288 | 3.5 | 14.8 | 0.00 | 0.00 | 0.00 | 32 | 1013.3 |
| 20260506223055 | 50 | 248 | 7.0 | 20.0 | 0.00 | 0.00 | 0.00 | 32 | 1013.4 |
| 20260506222555 | 50 | 288 | 12.2 | 20.0 | 0.00 | 0.00 | 0.00 | 30 | 1013.6 |
| 20260506222054 | 50 | 259 | 11.3 | 17.4 | 0.00 | 0.00 | 0.00 | 30 | 1013.6 |
| 20260506221604 | 49 | 259 | 9.6 | 15.6 | 0.00 | 0.00 | 0.00 | 31 | 1013.7 |
| 20260506221050 | 48 | 284 | 6.1 | 18.2 | 0.00 | 0.00 | 0.00 | 32 | 1013.8 |
| 20260506220549 | 48 | 286 | 7.8 | 18.2 | 0.00 | 0.00 | 0.00 | 33 | 1013.9 |
| 20260506220049 | 49 | 268 | 12.2 | 21.7 | 0.00 | 0.00 | 0.00 | 32 | 1014.0 |
| 20260506215548 | 49 | 286 | 10.4 | 20.9 | 0.00 | 0.00 | 0.00 | 33 | 1014.0 |
| 20260506215049 | 49 | 281 | 13.0 | 17.4 | 0.00 | 0.00 | 0.00 | 30 | 1014.1 |
| 20260506214553 | 49 | 248 | 10.4 | 23.5 | 0.00 | 0.00 | 0.00 | 33 | 1014.2 |
| 20260506214046 | 49 | 284 | 10.4 | 23.5 | 0.00 | 0.00 | 0.00 | 33 | 1014.2 |
| 20260506213546 | 49 | 257 | 9.6 | 20.0 | 0.00 | 0.00 | 0.00 | 32 | 1014.3 |
| 20260506213047 | 49 | 279 | 9.6 | 20.0 | 0.00 | 0.00 | 0.00 | 31 | 1014.3 |
| 20260506212546 | 49 | 254 | 12.2 | 19.1 | 0.00 | 0.00 | 0.00 | 34 | 1014.5 |
| 20260506212045 | 48 | 267 | 6.1 | 21.7 | 0.00 | 0.00 | 0.00 | 33 | 1014.5 |
| 20260506211544 | 49 | 271 | 11.3 | 21.7 | 0.00 | 0.00 | 0.00 | 32 | 1014.5 |
| 20260506211047 | 49 | 260 | 6.1 | 17.4 | 0.00 | 0.00 | 0.00 | 34 | 1014.5 |
| 20260506210544 | 49 | 243 | 8.7 | 20.9 | 0.00 | 0.00 | 0.00 | 30 | 1014.7 |
| 20260506210053 | 50 | 275 | 14.8 | 20.9 | 0.00 | 0.00 | 0.00 | 31 | 1014.7 |
| 20260506205546 | 49 | 277 | 7.8 | 18.2 | 0.00 | 0.00 | 0.00 | 33 | 1014.6 |
| 20260506205041 | 48 | 254 | 13.9 | 18.2 | 0.00 | 0.00 | 0.00 | 32 | 1014.8 |
| 20260506204545 | 47 | 246 | 9.6 | 20.0 | 0.00 | 0.00 | 0.00 | 34 | 1014.8 |
| 20260506204039 | 47 | 270 | 11.3 | 20.0 | 0.00 | 0.00 | 0.00 | 33 | 1015.0 |
| 20260506203540 | 47 | 249 | 7.0 | 20.0 | 0.00 | 0.00 | 0.00 | 33 | 1015.0 |
| 20260506203041 | 48 | 277 | 12.2 | 20.0 | 0.00 | 0.00 | 0.00 | 31 | 1015.0 |
| 20260506202541 | 48 | 284 | 7.8 | 21.7 | 0.00 | 0.00 | 0.00 | 30 | 1015.1 |
| 20260506202038 | 49 | 294 | 11.3 | 21.7 | 0.00 | 0.00 | 0.00 | 32 | 1015.0 |
| 20260506201537 | 49 | 242 | 5.2 | 17.4 | 0.00 | 0.00 | 0.00 | 31 | 1015.0 |
| 20260506201035 | 48 | 271 | 9.6 | 17.4 | 0.00 | 0.00 | 0.00 | 32 | 1015.1 |
| 20260506200537 | 48 | 295 | 10.4 | 15.6 | 0.00 | 0.00 | 0.00 | 31 | 1015.2 |
| 20260506200034 | 48 | 243 | 6.1 | 15.6 | 0.00 | 0.00 | 0.00 | 32 | 1015.2 |
| 20260506195532 | 47 | 319 | 7.8 | 16.5 | 0.00 | 0.00 | 0.00 | 33 | 1015.3 |
| 20260506195032 | 46 | 294 | 6.1 | 16.5 | 0.00 | 0.00 | 0.00 | 33 | 1015.4 |
| 20260506194531 | 47 | 265 | 11.3 | 16.5 | 0.00 | 0.00 | 0.00 | 31 | 1015.4 |
| 20260506194031 | 47 | 274 | 12.2 | 18.2 | 0.00 | 0.00 | 0.00 | 31 | 1015.5 |
| 20260506193532 | 47 | 248 | 12.2 | 18.2 | 0.00 | 0.00 | 0.00 | 32 | 1015.5 |
| 20260506193036 | 47 | 209 | 6.1 | 11.3 | 0.00 | 0.00 | 0.00 | 34 | 1015.5 |
| 20260506192532 | 47 | 340 | 4.3 | 13.0 | 0.00 | 0.00 | 0.00 | 34 | 1015.5 |
| 20260506192028 | 47 | 270 | 6.1 | 16.5 | 0.00 | 0.00 | 0.00 | 33 | 1015.6 |
| 20260506191528 | 46 | 221 | 7.8 | 16.5 | 0.00 | 0.00 | 0.00 | 33 | 1015.8 |
| 20260506191026 | 46 | 275 | 7.0 | 17.4 | 0.00 | 0.00 | 0.00 | 34 | 1015.7 |
| 20260506190527 | 46 | 223 | 8.7 | 17.4 | 0.00 | 0.00 | 0.00 | 32 | 1015.8 |
| 20260506190030 | 46 | 261 | 12.2 | 16.5 | 0.00 | 0.00 | 0.00 | 34 | 1015.8 |
| 20260506185524 | 45 | 360 | 6.1 | 14.8 | 0.00 | 0.00 | 0.00 | 33 | 1016.0 |
| 20260506185024 | 45 | 312 | 8.7 | 20.0 | 0.00 | 0.00 | 0.00 | 35 | 1016.2 |
| 20260506184534 | 45 | 309 | 12.2 | 19.1 | 0.00 | 0.00 | 0.00 | 36 | 1016.1 |
| 20260506184023 | 44 | 286 | 5.2 | 15.6 | 0.00 | 0.00 | 0.00 | 35 | 1016.2 |
| 20260506183523 | 44 | 273 | 10.4 | 14.8 | 0.00 | 0.00 | 0.00 | 36 | 1016.2 |
| 20260506183022 | 44 | 240 | 6.1 | 15.6 | 0.00 | 0.00 | 0.00 | 36 | 1016.3 |
| 20260506182522 | 44 | 271 | 11.3 | 17.4 | 0.00 | 0.00 | 0.00 | 36 | 1016.3 |
| 20260506182020 | 45 | 351 | 6.1 | 15.6 | 0.00 | 0.00 | 0.00 | 35 | 1016.2 |
| 20260506181529 | 44 | 266 | 6.1 | 15.6 | 0.00 | 0.00 | 0.00 | 37 | 1016.3 |
| 20260506181023 | 44 | 339 | 7.8 | 19.1 | 0.00 | 0.00 | 0.00 | 36 | 1016.3 |